HULIANWANG DIGUI-61

导读

HULIANWANG DIGUI-61是一颗由中国发射的互联网低轨卫星,于2025年8月13日成功发射入轨。该卫星是中国低轨互联网星座建设中的组成部分,旨在拓展全球互联网覆盖范围,提升网络接入服务能力,为不同区域提供更稳定便捷的卫星互联网通信支持,推动空间互联网基础设施的持续完善。

基本信息
目录编号:
65167
目录名称:
HULIANWANG DIGUI-61
国际标识:
2025-174D
轨道中心:
EARTH
卫星名称:
HULIANWANG DIGUI-61
卫星全名:
HULIANWANG DIGUI-61
卫星状态:
在轨 (已飞行303 天)
发射日期:
2025-08-13 UTC
国别 :
中国 (CN)
星等 :
--
轨道信息
数据来源 国际轨道数据 AOE轨道数据
星历时间 2026-06-12T15:16:13+0800
12小时前
查看轨道信息
2026-06-10T02:00:00+0800
3天前
查看轨道信息
半长轴 7546.076km 7546.073km
偏心率 0.0001832 0.0001962
轨道倾角 86.497° 86.496°
近地点辐角 91.113° 90.309°
升交点赤经 253.679° 254.540°
平近点角 269.021° 344.744°
近地点 1166.556km 1166.455km
远地点 1169.322km 1169.417km
周期 108.728分钟 108.728分钟
每日圈数 13.244056 13.244064
详细信息
使用方式:
暂无
2D轨道图
3D轨道图
轨道高度分析图
轨道倾角分析图
轨道综合分析图
查看轨道综合分析图